N1GUJ Weather Reports


Display with metric or nautical units.
time (UTC)temp
F
wind
direction
speed
MPH
gust
MPH
rain 1hr
in
rain 24hr
in
rain mn
in
humidity
%
barometer
mb
20260906214408 67 212 0.0 3.0 0.00 0.00 0.00 59 1016.1
20260906213905 67 151 0.0 4.0 0.00 0.00 0.00 58 1016.1
20260906213406 68 201 2.0 2.0 0.00 0.00 0.00 60 1016.1
20260906212911 68 201 0.0 1.0 0.00 0.00 0.00 57 1016.1
20260906212405 68 221 0.0 2.0 0.00 0.00 0.00 57 1016.1
20260906211909 68 126 1.0 2.0 0.00 0.00 0.00 56 1016.1
20260906211411 68 34 0.0 2.0 0.00 0.00 0.00 56 1016.1
20260906210905 68 14 0.0 5.0 0.00 0.00 0.00 56 1016.1
20260906210411 68 174 1.0 2.0 0.00 0.00 0.00 58 1016.1
20260906205905 68 101 0.0 4.0 0.00 0.00 0.00 57 1016.1
20260906205411 68 237 0.0 8.0 0.00 0.00 0.00 58 1016.1
20260906204908 68 69 0.0 3.0 0.00 0.00 0.00 59 1016.1
20260906204411 68 114 0.0 7.0 0.00 0.00 0.00 58 1016.2
20260906203905 68 156 0.0 2.0 0.00 0.00 0.00 61 1016.2
20260906203414 68 205 0.0 3.0 0.00 0.00 0.00 58 1016.2
20260906202908 68 224 0.0 3.0 0.00 0.00 0.00 57 1016.2
20260906202405 68 151 1.0 4.0 0.00 0.00 0.00 58 1016.2
20260906201908 68 205 0.0 3.0 0.00 0.00 0.00 59 1016.2
20260906201411 67 191 2.0 5.0 0.00 0.00 0.00 58 1016.1
20260906200905 68 126 1.0 5.0 0.00 0.00 0.00 57 1016.0
20260906200407 68 87 1.0 7.0 0.00 0.00 0.00 59 1016.0
20260906195908 68 148 1.0 3.0 0.00 0.00 0.00 60 1016.0
20260906195404 68 239 0.0 3.0 0.00 0.00 0.00 59 1016.1
20260906194905 68 237 0.0 1.0 0.00 0.00 0.00 59 1016.0
20260906194405 68 242 0.0 4.0 0.00 0.00 0.00 60 1016.1
20260906193904 68 270 0.0 2.0 0.00 0.00 0.00 58 1016.0
20260906193405 68 321 0.0 6.0 0.00 0.00 0.00 63 1016.0
20260906192911 67 230 0.0 4.0 0.00 0.00 0.00 61 1016.0
20260906192410 67 16 0.0 7.0 0.00 0.00 0.00 65 1016.0
20260906191904 66 214 0.0 5.0 0.00 0.00 0.00 63 1015.9
20260906191411 66 220 1.0 2.0 0.00 0.00 0.00 64 1015.9
20260906190913 66 219 1.0 4.0 0.00 0.00 0.00 63 1015.9
20260906190407 66 114 0.0 4.0 0.00 0.00 0.00 64 1016.0
20260906185907 66 241 1.0 4.0 0.00 0.00 0.00 61 1016.0
20260906185404 66 201 3.0 6.0 0.00 0.00 0.00 63 1016.0
20260906184907 66 101 0.0 5.0 0.00 0.00 0.00 64 1016.1
20260906184404 66 278 0.0 4.0 0.00 0.00 0.00 66 1016.1
20260906183904 65 268 2.0 3.0 0.00 0.00 0.00 65 1016.2
20260906183404 65 147 1.0 4.0 0.00 0.00 0.00 64 1016.2
20260906182907 65 336 0.0 4.0 0.00 0.00 0.00 66 1016.3
20260906182404 65 101 0.0 3.0 0.00 0.00 0.00 66 1016.3
20260906181904 65 204 2.0 3.0 0.00 0.00 0.00 63 1016.3
20260906181407 65 236 0.0 4.0 0.00 0.00 0.00 68 1016.3
20260906180904 65 127 0.0 6.0 0.00 0.00 0.00 65 1016.2
20260906180410 65 227 1.0 5.0 0.00 0.00 0.00 69 1016.3
20260906175905 65 47 2.0 3.0 0.00 0.00 0.00 73 1016.3
20260906175410 65 43 0.0 3.0 0.00 0.00 0.00 70 1016.3
20260906174907 65 283 1.0 9.0 0.00 0.00 0.00 69 1016.4
20260906174410 65 87 1.0 6.0 0.00 0.00 0.00 68 1016.4
20260906173907 65 225 2.0 5.0 0.00 0.00 0.00 70 1016.5
20260906173413 65 226 0.0 3.0 0.00 0.00 0.00 72 1016.5
20260906172904 65 225 1.0 3.0 0.00 0.00 0.00 71 1016.6
20260906172404 64 110 0.0 5.0 0.00 0.00 0.00 70 1016.6
20260906171910 64 116 0.0 2.0 0.00 0.00 0.00 70 1016.6
20260906171404 64 220 0.0 2.0 0.00 0.00 0.00 70 1016.6
20260906170904 64 165 0.0 1.0 0.00 0.00 0.00 70 1016.6
20260906170410 64 166 0.0 3.0 0.00 0.00 0.00 69 1016.7
20260906165904 64 204 0.0 3.0 0.00 0.00 0.00 71 1016.9
20260906165407 63 216 1.0 3.0 0.00 0.00 0.00 78 1016.9
20260906164905 63 216 0.0 3.0 0.00 0.00 0.00 71 1016.9
20260906164407 63 219 0.0 4.0 0.00 0.00 0.00 75 1017.0
20260906163507 62 120 0.0 4.0 0.00 0.00 0.00 72 1017.1
20260906163004 62 231 2.0 4.0 0.00 0.00 0.00 77 1017.2
20260906162507 62 232 0.0 3.0 0.00 0.00 0.00 75 1017.3
20260906162004 62 232 0.0 3.0 0.00 0.00 0.00 77 1017.3
20260906161504 62 176 0.0 2.0 0.00 0.00 0.00 76 1017.4
20260906161007 61 230 0.0 2.0 0.00 0.00 0.00 79 1017.3
20260906160504 61 230 0.0 4.0 0.00 0.00 0.00 78 1017.4
20260906160004 61 221 2.0 3.0 0.00 0.00 0.00 78 1017.3
20260906155504 61 226 2.0 3.0 0.00 0.00 0.00 78 1017.4
20260906155007 60 202 0.0 4.0 0.00 0.00 0.00 81 1017.4
20260906154507 60 228 1.0 3.0 0.00 0.00 0.00 80 1017.4
20260906154004 60 134 0.0 4.0 0.00 0.00 0.00 81 1017.5
20260906153507 59 203 0.0 2.0 0.00 0.00 0.00 83 1017.6
20260906153006 59 201 0.0 5.0 0.00 0.00 0.00 85 1017.6
20260906152504 59 171 1.0 3.0 0.00 0.00 0.00 86 1017.7
20260906152004 58 170 3.0 3.0 0.00 0.00 0.00 85 1017.7
20260906151504 58 139 0.0 2.0 0.00 0.00 0.00 86 1017.7
20260906151004 58 124 0.0 4.0 0.00 0.00 0.00 86 1017.8
20260906150506 57 182 0.0 2.0 0.00 0.00 0.00 86 1017.8
20260906150003 57 181 0.0 2.0 0.00 0.00 0.00 88 1017.8
20260906145503 57 224 0.0 1.0 0.00 0.00 0.00 88 1017.8
20260906145003 57 224 0.0 1.0 0.00 0.00 0.00 88 1017.7
20260906144507 56 224 0.0 0.0 0.00 0.00 0.00 88 1017.6
20260906144004 56 224 0.0 1.0 0.00 0.00 0.00 87 1017.6
20260906143503 56 224 0.0 0.0 0.00 0.00 0.00 88 1017.5
20260906143003 56 224 0.0 4.0 0.00 0.00 0.00 88 1017.5
20260906142503 56 224 0.0 1.0 0.00 0.00 0.00 88 1017.5
20260906142003 56 224 0.0 0.0 0.00 0.00 0.00 89 1017.4
20260906141503 56 224 0.0 0.0 0.00 0.00 0.00 89 1017.3
20260906141010 56 224 0.0 0.0 0.00 0.00 0.00 89 1017.3
20260906140503 55 224 0.0 1.0 0.00 0.00 0.00 88 1017.3
20260906140003 55 224 0.0 1.0 0.00 0.00 0.00 88 1017.4
20260906135506 55 224 0.0 2.0 0.00 0.00 0.00 89 1017.4
20260906135006 55 224 0.0 1.0 0.00 0.00 0.00 88 1017.4
20260906134506 55 224 0.0 2.0 0.00 0.00 0.00 89 1017.4
20260906134003 55 224 0.0 0.0 0.00 0.00 0.00 89 1017.3
20260906133509 55 224 0.0 1.0 0.00 0.00 0.00 88 1017.3
20260906133007 55 224 0.0 1.0 0.00 0.00 0.00 89 1017.3
20260906132509 55 224 0.0 2.0 0.00 0.00 0.00 89 1017.2
20260906132003 55 224 0.0 1.0 0.00 0.00 0.00 89 1017.2
20260906131503 55 224 0.0 1.0 0.00 0.00 0.00 90 1017.0
20260906131003 55 220 0.0 2.0 0.00 0.00 0.00 91 1017.1
20260906130503 54 220 0.0 2.0 0.00 0.00 0.00 91 1017.0
20260906130003 54 220 0.0 3.0 0.00 0.00 0.00 91 1017.1
20260906125506 54 220 0.0 1.0 0.00 0.00 0.00 91 1017.1
20260906125006 54 220 0.0 1.0 0.00 0.00 0.00 92 1017.0
20260906124506 54 220 0.0 1.0 0.00 0.00 0.00 91 1017.0
20260906124009 54 220 0.0 1.0 0.00 0.00 0.00 92 1017.0
20260906123503 54 220 0.0 0.0 0.00 0.00 0.00 92 1017.1
20260906123006 54 220 0.0 1.0 0.00 0.00 0.00 91 1017.0
20260906122503 54 220 0.0 0.0 0.00 0.00 0.00 92 1016.9
20260906122003 54 220 0.0 1.0 0.00 0.00 0.00 91 1017.0
20260906121506 54 220 0.0 1.0 0.00 0.00 0.00 91 1017.0
20260906121003 54 220 0.0 1.0 0.00 0.00 0.00 92 1017.0
20260906120503 54 220 0.0 1.0 0.00 0.00 0.00 92 1016.9
20260906120006 54 220 0.0 1.0 0.00 0.00 0.00 92 1016.7
20260906115509 54 220 0.0 1.0 0.00 0.00 0.00 92 1016.7
20260906115003 54 220 0.0 2.0 0.00 0.00 0.00 92 1016.7
20260906114503 54 220 0.0 0.0 0.00 0.00 0.00 92 1016.7
20260906114002 54 220 0.0 0.0 0.00 0.00 0.00 92 1016.6
20260906113503 53 220 0.0 0.0 0.00 0.00 0.00 92 1016.5
20260906113006 54 220 0.0 1.0 0.00 0.00 0.00 92 1016.4
20260906112503 53 220 0.0 0.0 0.00 0.00 0.00 92 1016.4
20260906112006 53 220 0.0 0.0 0.00 0.00 0.00 92 1016.4
20260906111503 53 220 0.0 0.0 0.00 0.00 0.00 92 1016.1
20260906111005 53 220 0.0 0.0 0.00 0.00 0.00 92 1016.1
20260906110505 53 220 0.0 0.0 0.00 0.00 0.00 92 1016.0
20260906110005 53 220 0.0 1.0 0.00 0.00 0.00 92 1015.9
20260906105505 53 220 0.0 0.0 0.00 0.00 0.00 92 1015.8
20260906105011 53 220 0.0 1.0 0.00 0.00 0.00 92 1015.9
20260906104505 53 220 0.0 0.0 0.00 0.00 0.00 92 1015.9
20260906104002 53 220 0.0 2.0 0.00 0.00 0.00 92 1015.8
20260906103502 53 220 0.0 0.0 0.00 0.00 0.00 92 1015.8
20260906103002 53 220 0.0 1.0 0.00 0.00 0.00 92 1015.7
20260906102502 53 220 0.0 1.0 0.00 0.00 0.00 92 1015.6
20260906102002 53 220 0.0 0.0 0.00 0.00 0.00 92 1015.6
20260906101505 53 220 0.0 0.0 0.00 0.00 0.00 92 1015.6
20260906101005 53 220 0.0 0.0 0.00 0.00 0.00 92 1015.5
20260906100505 53 220 0.0 0.0 0.00 0.00 0.00 92 1015.5
20260906100002 53 220 0.0 0.0 0.00 0.00 0.00 92 1015.5
20260906095502 53 220 0.0 1.0 0.00 0.00 0.00 92 1015.5
20260906095002 53 220 0.0 2.0 0.00 0.00 0.00 92 1015.5
20260906094505 53 220 0.0 0.0 0.00 0.00 0.00 92 1015.5
20260906094005 53 220 0.0 0.0 0.00 0.00 0.00 92 1015.4
20260906093502 53 220 0.0 1.0 0.00 0.00 0.00 92 1015.3
20260906093002 53 220 0.0 0.0 0.00 0.00 0.00 92 1015.3
20260906092502 53 220 0.0 0.0 0.00 0.00 0.00 92 1015.2
20260906092002 53 220 0.0 1.0 0.00 0.00 0.00 92 1015.1
20260906091502 53 220 0.0 0.0 0.00 0.00 0.00 91 1015.1
20260906091008 53 220 0.0 0.0 0.00 0.00 0.00 91 1015.0
20260906090505 54 220 0.0 0.0 0.00 0.00 0.00 91 1015.0
20260906090002 54 220 0.0 0.0 0.00 0.00 0.00 91 1014.9
20260906085502 54 220 0.0 0.0 0.00 0.00 0.00 91 1015.0
20260906085002 54 220 0.0 0.0 0.00 0.00 0.00 91 1015.0
20260906084505 54 220 0.0 0.0 0.00 0.00 0.00 91 1014.9
20260906084002 54 220 0.0 1.0 0.00 0.00 0.00 91 1014.9
20260906083505 54 220 0.0 1.0 0.00 0.00 0.00 91 1014.8
20260906083002 54 220 0.0 2.0 0.00 0.00 0.00 91 1014.9
20260906082502 54 220 0.0 1.0 0.00 0.00 0.00 91 1014.9
20260906082002 54 220 0.0 0.0 0.00 0.00 0.00 91 1014.9
20260906081502 54 220 0.0 1.0 0.00 0.00 0.00 91 1014.9
20260906081008 54 220 0.0 0.0 0.00 0.00 0.00 91 1014.9
20260906080508 54 220 0.0 0.0 0.00 0.00 0.00 92 1014.7
20260906080002 54 220 0.0 0.0 0.00 0.00 0.00 91 1014.6
20260906075502 54 220 0.0 0.0 0.00 0.00 0.00 91 1014.6
20260906075001 54 220 0.0 0.0 0.00 0.00 0.00 91 1014.6
20260906074501 54 220 0.0 0.0 0.00 0.00 0.00 91 1014.6
20260906074005 54 220 0.0 0.0 0.00 0.00 0.00 91 1014.6
20260906073501 54 220 0.0 0.0 0.00 0.00 0.00 91 1014.6
20260906073004 54 220 0.0 0.0 0.00 0.00 0.00 91 1014.6
20260906072501 54 220 0.0 1.0 0.00 0.00 0.00 91 1014.6
20260906072010 54 220 0.0 0.0 0.00 0.00 0.00 91 1014.5
20260906071501 54 220 0.0 0.0 0.00 0.00 0.00 91 1014.4
20260906071004 54 220 0.0 0.0 0.00 0.00 0.00 91 1014.4
20260906070510 54 220 0.0 1.0 0.00 0.00 0.00 91 1014.3
20260906070001 54 220 0.0 0.0 0.00 0.00 0.00 91 1014.3
20260906065504 54 220 0.0 0.0 0.00 0.00 0.00 91 1014.4
20260906065005 54 220 0.0 0.0 0.00 0.00 0.00 91 1014.4
20260906064501 54 220 0.0 0.0 0.00 0.00 0.00 91 1014.4
20260906064001 54 220 0.0 0.0 0.00 0.00 0.00 91 1014.4
20260906063507 54 220 0.0 0.0 0.00 0.00 0.00 91 1014.3
20260906063001 54 220 0.0 0.0 0.00 0.00 0.00 91 1014.3
20260906062501 54 220 0.0 0.0 0.00 0.00 0.00 91 1014.2
20260906062001 54 220 0.0 0.0 0.00 0.00 0.00 91 1014.2
20260906061508 54 220 0.0 0.0 0.00 0.00 0.00 91 1014.2
20260906061004 55 220 0.0 0.0 0.00 0.00 0.00 91 1014.2
20260906060504 55 220 0.0 0.0 0.00 0.00 0.00 90 1014.2
20260906060005 55 220 0.0 0.0 0.00 0.00 0.00 90 1014.2
20260906055501 55 220 0.0 0.0 0.00 0.00 0.00 91 1014.2
20260906055001 55 220 0.0 0.0 0.00 0.00 0.00 91 1014.2
20260906054501 55 220 0.0 0.0 0.00 0.00 0.00 91 1014.2
20260906054004 55 220 0.0 1.0 0.00 0.00 0.00 91 1014.3
20260906053501 55 220 0.0 0.0 0.00 0.00 0.00 90 1014.2
20260906053004 55 220 0.0 0.0 0.00 0.00 0.00 90 1014.1
20260906052501 55 220 0.0 0.0 0.00 0.00 0.00 90 1014.2
20260906052004 55 220 0.0 0.0 0.00 0.00 0.00 90 1014.2
20260906051507 55 220 0.0 0.0 0.00 0.00 0.00 90 1014.0
20260906051001 55 220 0.0 0.0 0.00 0.00 0.00 90 1014.0
20260906050504 55 220 0.0 0.0 0.00 0.00 0.00 89 1014.0
20260906050004 55 220 0.0 0.0 0.00 0.00 0.00 89 1013.9
20260906045501 55 220 0.0 0.0 0.00 0.00 0.00 89 1013.9
20260906045010 56 220 0.0 0.0 0.00 0.00 0.00 89 1013.9
20260906044504 56 220 0.0 0.0 0.00 0.00 0.00 89 1013.8
20260906044004 56 220 0.0 0.0 0.00 0.00 0.00 89 1013.9
20260906043501 56 220 0.0 0.0 0.00 0.00 0.00 89 1013.8
20260906043001 56 220 0.0 0.0 0.00 0.00 0.00 89 1013.8
20260906042501 57 220 0.0 0.0 0.00 0.00 0.00 89 1013.8
20260906042004 57 220 0.0 0.0 0.00 0.00 0.00 88 1013.9
20260906041504 57 220 0.0 0.0 0.00 0.00 0.00 88 1014.0
20260906041004 57 220 0.0 0.0 0.00 0.00 0.00 88 1014.0
20260906040501 57 220 0.0 0.0 0.00 0.00 0.00 88 1013.8
20260906040004 58 220 0.0 0.0 0.00 0.00 0.00 88 1013.8
20260906035507 58 220 0.0 0.0 0.00 0.00 0.00 89 1013.6
20260906035003 58 220 0.0 0.0 0.00 0.00 0.00 89 1013.5
20260906034501 58 220 0.0 0.0 0.00 0.00 0.00 89 1013.5
20260906034001 58 220 0.0 0.0 0.00 0.00 0.00 89 1013.4
20260906033500 58 220 0.0 1.0 0.00 0.00 0.00 88 1013.3
20260906033003 58 220 0.0 1.0 0.00 0.00 0.00 88 1013.4
20260906032501 59 220 0.0 1.0 0.00 0.00 0.00 88 1013.7
20260906032006 59 220 0.0 0.0 0.00 0.00 0.00 89 1013.6
20260906031504 59 220 0.0 0.0 0.00 0.00 0.00 89 1013.7
20260906031001 59 220 0.0 0.0 0.00 0.00 0.00 90 1013.7
20260906030503 59 220 0.0 0.0 0.00 0.00 0.00 90 1013.7
20260906030000 59 220 0.0 0.0 0.00 0.00 0.00 90 1013.7
20260906025503 59 220 0.0 0.0 0.00 0.00 0.00 90 1013.7
20260906025000 59 220 0.0 0.0 0.00 0.00 0.00 90 1013.8
20260906024500 59 220 0.0 0.0 0.00 0.00 0.00 90 1013.8
20260906024000 59 220 0.0 0.0 0.00 0.00 0.00 90 1013.8
20260906023500 60 220 0.0 0.0 0.00 0.00 0.00 90 1013.9
20260906023001 60 220 0.0 0.0 0.00 0.00 0.00 90 1013.8
20260906022503 60 220 0.0 0.0 0.00 0.00 0.00 90 1013.8
20260906022001 60 220 0.0 0.0 0.00 0.00 0.00 90 1013.7
20260906021500 60 220 0.0 0.0 0.00 0.00 0.00 90 1013.7
20260906021000 60 220 0.0 0.0 0.00 0.00 0.00 90 1013.7
20260906020503 60 220 0.0 0.0 0.00 0.00 0.00 90 1013.8
20260906020000 60 220 0.0 0.0 0.00 0.00 0.00 90 1013.8
20260906015503 60 220 0.0 0.0 0.00 0.00 0.00 90 1013.8
20260906015006 60 220 0.0 0.0 0.00 0.00 0.00 90 1013.9
20260906014503 60 220 0.0 0.0 0.00 0.00 0.00 89 1013.8
20260906014003 60 220 0.0 0.0 0.00 0.00 0.00 89 1013.8
20260906013500 60 220 0.0 0.0 0.00 0.00 0.00 89 1013.8
20260906013000 60 220 0.0 0.0 0.00 0.00 0.00 89 1013.8
20260906012506 60 220 0.0 0.0 0.00 0.00 0.00 89 1013.7
20260906012001 60 220 0.0 0.0 0.00 0.00 0.00 89 1013.6
20260906011500 60 220 0.0 0.0 0.00 0.00 0.00 89 1013.7
20260906011007 60 220 0.0 0.0 0.00 0.00 0.00 89 1013.8
20260906010503 60 220 0.0 0.0 0.00 0.00 0.00 89 1013.7
20260906010003 60 220 0.0 0.0 0.00 0.00 0.00 89 1013.7
20260906005506 60 220 0.0 0.0 0.00 0.00 0.00 89 1013.5
20260906005003 61 220 0.0 0.0 0.00 0.00 0.00 89 1013.5
20260906004509 61 220 0.0 0.0 0.00 0.00 0.00 89 1013.4
20260906004003 61 220 0.0 0.0 0.00 0.00 0.00 88 1013.5
20260906003503 61 220 0.0 0.0 0.00 0.00 0.00 88 1013.5
20260906003000 61 220 0.0 0.0 0.00 0.00 0.00 88 1013.5
20260906002500 61 220 0.0 0.0 0.00 0.00 0.00 88 1013.4
20260906002003 61 220 0.0 0.0 0.00 0.00 0.00 88 1013.4
20260906001500 61 220 0.0 0.0 0.00 0.00 0.00 88 1013.3
20260906001000 61 220 0.0 0.0 0.00 0.00 0.00 88 1013.4
20260906000503 61 220 0.0 0.0 0.00 0.00 0.00 88 1013.4
20260906000000 61 220 0.0 0.0 0.00 0.00 0.00 88 1013.4
20260905235506 61 220 0.0 0.0 0.00 0.00 0.00 88 1013.2
20260905235000 61 220 0.0 0.0 0.00 0.00 0.00 88 1013.2
20260905234500 61 220 0.0 0.0 0.00 0.00 0.00 87 1013.2
20260905234006 61 220 0.0 0.0 0.00 0.00 0.00 87 1013.2
20260905233500 61 220 0.0 0.0 0.00 0.00 0.00 87 1013.1
20260905233000 61 220 0.0 0.0 0.00 0.00 0.00 87 1013.1
20260905232506 61 220 0.0 0.0 0.00 0.00 0.00 87 1013.0
20260905232002 62 220 0.0 0.0 0.00 0.00 0.00 87 1012.9
20260905231505 62 220 0.0 0.0 0.00 0.00 0.00 87 1012.9
20260905230959 62 220 0.0 0.0 0.00 0.00 0.00 86 1012.8
20260905230459 62 220 0.0 0.0 0.00 0.00 0.00 86 1012.9
20260905225959 62 220 0.0 0.0 0.00 0.00 0.00 86 1012.9
20260905225506 62 220 0.0 1.0 0.00 0.00 0.00 85 1013.0
20260905224959 62 220 0.0 1.0 0.00 0.00 0.00 85 1013.0
20260905224502 62 220 0.0 0.0 0.00 0.00 0.00 85 1012.9
20260905223959 62 220 0.0 1.0 0.00 0.00 0.00 84 1012.9
20260905223459 62 220 0.0 0.0 0.00 0.00 0.00 84 1012.8
20260905222959 63 220 0.0 2.0 0.00 0.00 0.00 83 1012.7
20260905222502 63 220 0.0 1.0 0.00 0.00 0.00 82 1012.7
20260905222002 63 220 0.0 1.0 0.00 0.00 0.00 83 1012.7
20260905221502 64 220 0.0 3.0 0.00 0.00 0.00 83 1012.7
20260905221002 64 220 1.0 2.0 0.00 0.00 0.00 86 1012.6
20260905220505 64 220 0.0 0.0 0.00 0.00 0.00 86 1012.5
20260905215959 64 220 0.0 0.0 0.00 0.00 0.00 86 1012.5
20260905215459 64 219 0.0 0.0 0.00 0.00 0.00 86 1012.4
20260905215000 64 219 0.0 0.0 0.00 0.00 0.00 85 1012.4